Weather History for KOSH - May, 2013

Change the Weather History Date:

Wednesday, May 1, 2013

  Actual Average Record
Temperature  
Mean Temperature 64 °F -  
Max Temperature 75 °F 62 °F 91 °F (1952)
Min Temperature 51 °F 40 °F 22 °F (1978)
Degree Days  
Heating Degree Days 2    
Growing Degree Days 14 (Base 50)    
Moisture  
Dew Point 48 °F    
Average Humidity 59    
Maximum Humidity 72    
Minimum Humidity 45    
Precipitation  
Precipitation 0.00 in - - ()
Sea Level Pressure  
Sea Level Pressure 30.07 in    
Wind  
Wind Speed 9 mph (NNE)    
Max Wind Speed 16 mph    
Max Gust Speed 26 mph    
Visibility 10 miles    
Events      
Averages and records for this station are not official NWS values.
T = Trace of Precipitation, MM = Missing Value Source: NWS Daily Summary

Daily Weather History Graph

Daily Weather History Graph

Search for Another Location

Airport or City:

Trip Planner

Search our weather history database for the weather conditions in past years. The results will help you decide how hot, cold, wet, or windy it might be!

Date:

Astronomy

May. 01, 2013 Rise Set
Actual Time 5:45 AM CDT 7:57 PM CDT
Civil Twilight 5:13 AM CDT 8:29 PM CDT
Nautical Twilight 4:34 AM CDT 9:08 PM CDT
Astronomical Twilight 3:51 AM CDT 9:52 PM CDT
Moon 1:07 AM CDT 11:23 AM CDT
Length of Visible Light 15h 15m
Length of Day
14h 12m
Waning Gibbous, 59% of the Moon is Illuminated
May 1
Waning Gibbous
May 2
Last Quarter
May 9
New
May 17
First Quarter
May 24
Full

Hourly Weather History & Observations

Time (CDT) Temp. Dew Point Humidity Pressure Visibility Wind Dir Wind Speed Gust Speed Precip Events Conditions
12:53 AM 71.1 °F 51.1 °F 49% 29.87 in 10.0 mi WSW 8.1 mph 17.3 mph N/A   Clear
1:53 AM 64.0 °F 42.1 °F 45% 29.90 in 10.0 mi NNW 16.1 mph - N/A   Clear
2:53 AM 60.1 °F 43.0 °F 53% 29.92 in 10.0 mi WNW 4.6 mph - N/A   Clear
3:53 AM 55.9 °F 44.1 °F 64% 29.94 in 10.0 mi North 3.5 mph - N/A   Clear
4:53 AM 54.0 °F 44.1 °F 69% 29.95 in 10.0 mi Calm Calm - N/A   Clear
5:53 AM 54.0 °F 45.0 °F 72% 29.99 in 10.0 mi NNW 8.1 mph - N/A   Clear
6:53 AM 57.0 °F 46.0 °F 67% 30.01 in 10.0 mi North 6.9 mph - N/A   Overcast
7:53 AM 59.0 °F 46.9 °F 64% 30.04 in 10.0 mi North 9.2 mph - N/A   Clear
8:53 AM 63.0 °F 46.9 °F 56% 30.05 in 10.0 mi NNE 11.5 mph - N/A   Clear
9:53 AM 64.0 °F 48.9 °F 58% 30.06 in 10.0 mi NNE 12.7 mph - N/A   Clear
10:53 AM 66.0 °F 50.0 °F 56% 30.07 in 10.0 mi NE 10.4 mph - N/A   Clear
11:53 AM 69.1 °F 51.1 °F 53% 30.07 in 10.0 mi NNE 11.5 mph - N/A   Clear
12:53 PM 70.0 °F 52.0 °F 53% 30.07 in 10.0 mi NE 6.9 mph - N/A   Clear
1:53 PM 72.0 °F 53.1 °F 51% 30.08 in 10.0 mi NE 3.5 mph - N/A   Clear
2:53 PM 73.0 °F 54.0 °F 51% 30.09 in 10.0 mi Calm Calm - N/A   Partly Cloudy
3:53 PM 72.0 °F 55.0 °F 55% 30.09 in 10.0 mi ENE 11.5 mph - N/A   Mostly Cloudy
4:53 PM 70.0 °F 54.0 °F 57% 30.11 in 10.0 mi NE 11.5 mph - N/A   Clear
5:53 PM 69.1 °F 54.0 °F 58% 30.12 in 10.0 mi NE 10.4 mph - N/A   Clear
6:53 PM 64.0 °F 52.0 °F 65% 30.14 in 10.0 mi ENE 9.2 mph - N/A   Scattered Clouds
7:53 PM 59.0 °F 46.9 °F 64% 30.16 in 10.0 mi ENE 11.5 mph - N/A   Scattered Clouds
8:53 PM 57.0 °F 45.0 °F 64% 30.21 in 10.0 mi NE 9.2 mph - N/A   Scattered Clouds
9:53 PM 55.9 °F 43.0 °F 62% 30.24 in 10.0 mi NNE 11.5 mph - N/A   Mostly Cloudy
10:53 PM 54.0 °F 41.0 °F 62% 30.25 in 10.0 mi NNE 15.0 mph 24.2 mph N/A   Mostly Cloudy
11:53 PM 51.1 °F 37.9 °F 61% 30.26 in 10.0 mi NE 16.1 mph 26.5 mph N/A   Overcast